HULIANWAN GAOGUI-03 (H*)

Last updated on Fri Feb 13 2026 00:02:52 GMT+0000 (Coordinated Universal Time)

1 61503U 24181A 26043.15530612 -.00000233 00000+0 00000+0 0 9996 2 61503 0.0229 48.4007 0000599 86.8014 345.7738 1.00272843 5574
UTC large
Height (km)
Speed (km/s)
/
Latitude / Longitude
Inclination (degrees)
Orbital Period (minutes)
Azimuth
Elevation
Range (km)
Doppler Factor

Next 0 passes for location: London (51.5072 / 0.1276)

Sorry there are no passes over London.